Location: Burzi?i
(45.0869°N, 16.0577°E)
Time: 11:19:16
(UTC+00:00)

SAR-Lupe-4 - Pass Details

Date: 29 October 2020
Orbit: 481 x 484 km, 98.2° (Epoch: 22 November)

Event Time Altitude Azimuth Distance (km) Brightness Sun altitude
Rises 17:04:07 0° 11° (N) 2,555 7.1 -14.0°
Reaches altitude 10° 17:06:11 10° 9° (N) 1,670 6.1 -14.4°
Maximum altitude 17:09:45 70° 286° (WNW) 518 3.8 -15.0°
Drops below altitude 10° 17:13:18 10° 202° (SSW) 1,656 6.6 -15.6°
Sets 17:15:21 0° 200° (SSW) 2,531 7.5 -16.0°
